Wetbulb
53.98 53.74 53.74 54.18 54.68 54.43 54.73 55.16 55.67 56.02 56.37 57.14 58.56 59.88 60.34 59.86 62.93 61.49 57.24 60.46 61.15 64.29 61.65 58.37 58.22 57.76 56.69 53.63 54.09 50.94 43.36 42.30 44.57 46.55 48.64 49.36 49.20 50.64 50.15 50.55 51.79 53.92 56.76 58.14 62.47
53.85 54.08 53.68 53.89 54.70 54.44 54.20 54.42 54.88 55.36 55.86 56.41 57.67 59.11 59.96 59.71 60.17 58.47 63.05 64.93 64.83 63.82 57.83 56.01 54.16 55.80 52.23 52.40 52.13 46.61 42.18 43.74 49.20 48.17 48.31 49.75 49.71 50.69 49.57 50.81 52.05 54.86 58.72 61.48 62.58
54.51 53.87 53.97 53.80 54.16 54.28 53.95 53.79 53.97 54.85 55.18 55.92 56.70 58.33 59.50 60.16 54.29 55.72 64.52 65.42 65.05 63.28 58.41 57.18 56.55 54.27 51.70 52.04 50.67 47.12 43.23 46.35 48.49 50.35 51.00 50.04 49.52 50.07 49.72 47.10 52.47 54.44 58.59 60.29 61.31
54.86 54.34 54.01 53.95 53.79 54.22 54.07 53.26 53.40 53.93 54.90 55.54 56.39 57.97 59.16 57.33 42.91 55.80 64.05 65.40 64.84 59.73 57.87 56.19 54.76 51.73 50.51 48.88 53.01 46.01 48.90 47.50 49.66 51.24 50.32 48.98 51.60 49.13 49.66 49.49 53.99 59.15 60.81 60.12 60.30
54.73 54.66 54.14 53.59 53.58 53.71 54.13 53.15 52.65 53.63 54.59 55.09 55.79 57.98 55.25 49.89 51.31 60.79 63.68 64.06 60.84 57.83 55.63 54.05 52.43 51.27 48.25 50.91 51.48 48.35 47.74 49.56 49.57 49.74 49.45 50.98 50.01 49.52 49.04 53.11 59.20 60.23 60.80 59.74 59.61
54.93 54.41 54.37 53.71 53.42 53.31 53.83 53.11 52.40 52.91 54.04 54.48 55.36 57.88 50.08 45.21 57.30 61.39 61.05 59.35 58.37 56.56 54.70 54.58 52.95 53.81 51.12 51.22 49.93 50.01 49.80 49.21 49.43 48.95 49.98 48.75 48.84 50.19 49.72 56.35 58.50 59.64 58.90 59.41 59.37
54.99 54.97 54.74 53.93 53.64 53.07 53.60 52.41 52.33 52.68 53.54 54.10 54.88 55.12 50.28 46.95 56.29 60.62 60.16 58.67 58.73 57.01 53.20 55.41 55.66 53.85 52.46 49.46 52.31 51.02 46.12 47.03 46.72 47.99 48.84 49.14 46.47 47.85 51.05 56.23 57.25 57.76 57.21 57.96 59.01
54.93 54.85 54.61 54.15 53.44 53.09 52.63 52.19 52.36 52.56 53.06 53.80 54.80 51.06 42.84 54.65 56.48 59.17 59.98 58.37 59.51 59.11 56.75 56.93 57.12 53.92 51.90 51.14 50.05 47.64 46.19 40.01 45.13 47.86 48.31 48.17 42.99 48.16 53.59 55.32 54.83 55.13 55.33 57.36 58.54
54.05 54.21 54.71 54.20 53.63 53.31 52.31 51.93 51.98 52.05 53.04 53.47 47.56 45.16 40.91 56.12 52.30 56.03 59.39 56.62 57.38 57.48 56.97 57.40 56.05 51.80 50.68 46.64 43.97 44.89 40.53 39.99 42.43 45.01 45.59 46.63 43.65 47.87 51.94 54.05 53.36 53.88 54.32 56.12 56.90
54.19 54.17 54.24 53.99 53.50 53.17 51.92 50.86 51.01 50.60 48.82 49.79 48.66 39.06 43.83 45.06 50.75 54.68 58.04 58.18 54.94 53.94 51.94 51.86 51.33 47.05 47.01 45.18 37.63 38.48 40.38 42.31 41.08 42.22 43.58 44.21 44.03 45.20 49.74 51.99 52.19 52.17 53.21 54.20 55.39
53.91 54.12 53.82 53.66 53.47 52.59 47.58 42.91 38.09 36.42 41.08 37.39 37.55 38.93 44.35 47.32 50.65 51.63 56.89 55.70 54.47 52.21 45.81 49.14 43.96 41.20 44.18 45.88 43.88 44.46 42.97 42.72 42.44 43.76 41.34 42.98 43.50 44.77 46.25 48.48 49.08 49.32 50.35 51.94 52.90
53.72 54.24 53.83 53.41 53.11 51.53 44.28 38.61 38.89 40.11 34.03 41.19 42.09 43.12 45.22 46.96 42.13 47.41 54.78 50.83 49.57 44.55 46.90 45.78 40.48 43.89 47.28 46.32 44.49 44.70 42.20 41.83 44.05 44.96 43.15 41.22 42.22 44.38 44.46 46.19 47.52 49.04 48.28 49.75 45.59
53.61 53.62 53.18 53.12 52.36 44.32 39.58 40.09 46.42 43.73 32.01 35.53 41.10 40.72 42.44 44.96 41.62 43.64 50.69 49.22 46.44 44.67 44.31 41.81 42.63 45.83 45.69 44.42 42.16 43.22 42.70 42.04 41.88 43.34 43.21 42.13 39.58 41.54 43.40 45.05 45.70 47.77 48.33 46.40 43.87
53.28 52.68 52.78 52.62 43.98 42.10 38.47 44.36 45.22 41.65 18.12 24.53 35.88 39.96 44.16 44.13 38.44 47.04 50.62 48.57 44.85 43.67 44.12 43.11 45.12 44.03 43.57 43.21 44.11 39.85 45.36 43.94 42.31 40.71 38.01 43.51 36.79 41.67 43.01 42.22 43.63 44.71 43.35 42.50 43.11
52.98 52.71 52.63 49.11 41.30 40.53 43.18 45.47 43.40 36.44 2.51 27.76 36.42 45.49 43.82 37.73 41.60 42.14 51.60 48.51 43.56 42.95 44.07 40.54 42.40 42.43 42.37 41.91 44.65 41.55 45.76 43.53 42.62 39.66 39.00 38.85 37.68 39.95 41.82 41.29 43.55 44.55 41.78 41.34 42.35
52.62 52.15 49.84 44.58 41.87 43.26 45.12 42.86 37.78 16.62 5.27 25.46 38.12 37.47 37.67 38.86 40.29 43.56 45.21 48.82 47.70 42.29 44.30 41.88 45.81 44.89 44.44 44.98 45.42 45.79 42.76 41.98 41.30 38.01 32.18 36.76 36.85 36.87 39.23 40.71 42.62 41.13 42.33 41.88 42.97
51.64 50.38 47.79 46.27 40.32 44.75 42.86 36.54 17.95 6.41 23.52 23.42 32.69 36.51 34.92 34.52 36.54 39.06 39.69 40.82 38.94 33.32 35.60 37.79 41.04 42.90 46.05 42.61 44.62 42.51 38.55 29.80 29.03 29.23 29.69 36.81 34.40 37.24 42.44 44.38 42.79 41.77 42.06 43.52 44.32
49.88 48.14 45.83 44.70 44.47 43.67 39.25 25.99 12.89 9.53 12.01 32.68 32.81 34.62 32.29 34.83 33.57 36.35 37.14 35.88 41.57 39.32 35.25 32.76 30.56 40.44 43.61 43.14 40.54 39.77 37.84 31.08 25.69 26.00 25.99 33.68 31.81 36.57 42.54 43.97 43.99 43.90 43.72 43.67 43.30
48.15 42.12 41.29 42.85 44.24 40.65 30.59 10.95 12.56 13.38 28.75 29.41 30.97 28.58 29.81 34.55 34.31 32.99 33.48 35.49 40.04 40.94 34.80 33.27 33.71 41.49 41.54 43.86 43.95 39.13 34.57 37.34 29.39 26.95 26.53 29.33 32.04 35.44 37.74 37.54 40.99 41.55 42.07 42.05 41.44
40.58 38.66 38.63 43.29 41.41 36.22 29.43 20.19 19.93 31.68 32.68 32.24 24.58 29.78 26.16 31.55 31.15 32.48 34.11 38.29 38.82 41.81 41.89 37.57 31.65 39.06 40.01 43.92 42.21 40.63 40.31 31.42 31.11 24.09 22.62 25.07 26.65 30.03 33.81 35.85 38.79 39.49 39.07 39.43 40.92
36.03 29.22 38.36 42.21 37.91 28.56 16.84 13.03 22.21 33.99 34.24 30.94 29.52 29.62 31.27 31.02 32.52 32.12 34.41 37.45 40.07 40.80 40.29 38.55 36.33 34.60 39.49 38.11 36.15 36.99 34.71 33.78 33.48 29.61 24.10 22.32 26.67 33.22 35.54 37.49 38.60 39.83 40.64 41.19 41.05
32.03 21.69 38.34 38.75 22.98 11.28 12.06 17.85 31.99 31.72 35.08 34.66 33.22 32.31 30.91 32.36 32.04 32.04 33.17 37.17 41.16 41.38 36.47 36.84 35.35 31.97 33.87 36.67 39.01 37.73 37.10 34.42 29.29 26.22 27.78 27.74 27.02 35.75 36.08 36.67 38.14 38.32 40.09 40.55 41.30
28.99 29.15 37.38 34.56 14.17 10.53 16.24 24.62 31.43 31.62 33.40 33.89 33.95 34.13 32.05 31.71 30.36 33.68 35.19 39.89 40.25 40.03 36.72 37.99 33.59 28.89 30.86 34.99 37.67 35.14 35.52 35.16 33.28 31.04 26.97 25.55 26.15 36.23 35.79 35.82 37.35 37.95 39.21 40.41 40.49
26.48 19.47 23.45 28.42 26.96 21.39 22.96 28.70 28.78 33.17 32.21 33.93 33.25 33.28 32.04 31.24 32.91 32.20 34.17 39.49 39.75 38.54 41.44 40.21 33.46 29.42 27.24 29.67 34.20 31.74 33.48 34.41 32.86 25.68 27.46 27.48 28.64 31.73 34.40 35.50 36.95 37.93 39.41 39.92 40.62
24.73 21.80 23.17 15.59 19.76 27.31 29.60 29.64 26.92 25.93 31.05 32.86 31.04 31.45 31.64 29.51 31.11 31.03 36.32 37.31 38.36 39.38 36.78 36.21 30.22 30.06 29.73 30.91 33.53 33.02 33.48 33.67 32.22 31.54 28.81 30.40 30.13 33.45 35.77 36.88 37.91 39.00 39.15 39.34 39.63
24.85 22.41 26.16 11.85 25.06 26.67 26.80 26.72 26.59 27.64 28.42 28.33 28.30 30.26 31.06 27.89 29.29 29.73 34.57 35.99 34.81 36.86 35.23 34.25 26.61 28.02 24.91 28.32 31.00 29.25 32.71 33.57 32.94 32.34 32.67 31.46 31.17 36.38 38.57 38.98 38.03 39.06 39.19 38.80 38.86
30.68 30.91 26.06 25.27 21.46 18.96 22.90 25.36 26.89 28.56 29.79 32.13 30.95 29.54 29.33 30.65 32.27 34.86 36.27 36.16 35.59 34.73 32.76 31.12 26.51 18.91 16.03 23.72 29.51 23.49 30.00 32.07 32.62 33.92 34.22 30.54 34.77 37.47 35.94 36.68 36.02 37.53 38.19 38.24 38.43
MSLP
1018.42 1018.48 1018.47 1018.47 1018.41 1018.42 1018.26 1018.13 1017.93 1018.00 1017.73 1017.42 1017.22 1016.95 1016.82 1016.64 1016.32 1016.55 1016.18 1015.45 1015.28 1015.21 1015.20 1015.44 1015.63 1015.79 1015.97 1016.24 1015.96 1015.80 1016.32 1015.92 1014.81 1013.97 1013.30 1012.94 1012.91 1013.36 1013.65 1014.30 1014.78 1015.07 1015.41 1015.49 1016.50
1018.03 1018.15 1018.23 1018.24 1018.20 1018.23 1018.28 1018.11 1018.17 1018.01 1017.75 1017.58 1017.22 1016.96 1016.57 1016.50 1016.30 1015.65 1015.19 1014.92 1015.11 1015.07 1015.04 1015.24 1015.83 1016.11 1016.53 1016.43 1016.20 1016.09 1016.32 1015.54 1014.40 1013.70 1013.47 1013.19 1013.14 1013.18 1013.79 1014.58 1015.10 1015.46 1015.68 1016.04 1016.67
1017.66 1017.79 1017.91 1018.01 1018.03 1017.99 1018.07 1018.07 1018.06 1018.04 1017.91 1017.60 1017.40 1017.09 1016.69 1016.44 1016.29 1014.76 1014.53 1014.79 1014.98 1015.09 1015.39 1015.81 1015.85 1016.21 1016.69 1016.45 1016.35 1016.06 1015.97 1015.25 1014.08 1013.76 1013.59 1013.29 1013.08 1013.22 1013.70 1014.61 1014.64 1015.18 1015.92 1016.51 1016.96
1017.21 1017.47 1017.56 1017.70 1017.84 1017.85 1017.85 1017.85 1017.87 1017.89 1017.80 1017.71 1017.43 1017.09 1016.76 1016.71 1016.04 1014.57 1014.24 1014.52 1014.98 1015.18 1015.64 1016.19 1016.25 1016.70 1016.71 1016.43 1016.04 1016.14 1015.57 1015.17 1014.56 1013.83 1013.56 1013.47 1012.81 1013.31 1013.47 1013.64 1013.53 1014.65 1015.19 1016.35 1017.05
1016.81 1017.01 1017.41 1017.52 1017.68 1017.70 1017.66 1017.73 1017.66 1017.70 1017.65 1017.45 1017.24 1017.01 1016.84 1016.53 1015.19 1014.50 1014.27 1014.71 1015.18 1015.33 1015.63 1015.82 1016.31 1016.35 1016.60 1016.13 1016.07 1015.93 1015.71 1015.18 1014.56 1014.06 1013.73 1013.47 1013.11 1013.24 1013.56 1013.84 1014.06 1015.07 1015.92 1016.60 1017.10
1016.42 1016.62 1016.99 1017.32 1017.55 1017.56 1017.51 1017.61 1017.62 1017.60 1017.57 1017.35 1017.09 1016.85 1016.88 1016.11 1014.82 1014.65 1014.65 1015.08 1015.15 1015.40 1015.61 1015.88 1015.88 1015.91 1016.47 1016.27 1015.98 1015.84 1015.86 1015.21 1014.46 1013.98 1013.75 1013.51 1013.27 1013.39 1013.96 1014.23 1014.92 1015.46 1016.20 1016.74 1017.13
1015.92 1016.23 1016.64 1017.03 1017.37 1017.40 1017.41 1017.52 1017.54 1017.52 1017.46 1017.30 1017.05 1016.87 1016.56 1015.60 1014.88 1014.77 1014.70 1014.85 1014.99 1015.29 1015.56 1015.55 1015.37 1015.84 1016.85 1016.69 1016.18 1015.94 1016.04 1015.18 1014.33 1014.07 1013.94 1013.55 1013.74 1013.68 1013.91 1014.72 1015.34 1016.11 1016.54 1016.98 1017.20
1015.48 1015.87 1016.34 1016.74 1017.11 1017.19 1017.26 1017.36 1017.44 1017.47 1017.30 1017.14 1016.91 1016.85 1016.27 1015.24 1015.11 1015.15 1015.24 1015.18 1015.22 1015.31 1015.42 1015.77 1015.92 1016.69 1016.78 1016.58 1016.43 1016.07 1016.19 1015.72 1014.61 1014.25 1013.77 1014.04 1013.96 1013.83 1014.30 1014.93 1015.92 1016.36 1016.88 1017.17 1017.30
1014.99 1015.42 1015.95 1016.47 1016.79 1017.03 1017.21 1017.30 1017.36 1017.37 1017.18 1017.02 1017.05 1016.96 1016.29 1015.35 1015.27 1014.90 1014.94 1014.79 1015.31 1015.51 1015.73 1015.69 1016.06 1016.55 1016.71 1016.39 1016.89 1016.32 1015.79 1015.67 1015.26 1014.85 1014.32 1014.33 1014.26 1014.02 1014.70 1015.37 1016.09 1016.40 1016.95 1017.34 1017.51
1014.51 1015.05 1015.70 1016.26 1016.67 1016.99 1017.23 1017.37 1017.40 1017.38 1017.25 1017.12 1017.24 1017.47 1016.35 1015.58 1015.27 1014.99 1015.01 1014.95 1015.05 1015.43 1015.87 1015.87 1016.15 1016.30 1016.21 1015.77 1014.82 1015.73 1015.94 1015.74 1015.54 1015.39 1014.97 1014.75 1014.64 1014.54 1014.87 1015.45 1016.02 1016.55 1016.97 1017.51 1017.75
1014.05 1014.71 1015.38 1016.03 1016.60 1016.94 1017.50 1017.79 1018.20 1018.09 1017.72 1017.24 1017.26 1016.84 1016.33 1015.88 1015.30 1014.96 1015.00 1014.71 1014.63 1015.45 1015.39 1015.67 1015.83 1015.18 1015.57 1015.48 1015.69 1015.37 1015.76 1015.82 1015.79 1015.85 1015.62 1015.39 1015.13 1014.94 1015.22 1015.68 1016.39 1016.79 1017.07 1017.63 1018.08
1013.71 1014.46 1015.16 1015.98 1016.53 1017.05 1017.65 1018.03 1017.74 1017.92 1017.78 1017.08 1017.21 1016.98 1016.62 1016.33 1015.90 1015.16 1015.14 1014.91 1014.59 1014.74 1015.10 1015.86 1014.94 1014.95 1015.05 1015.45 1015.51 1015.31 1015.89 1016.22 1016.34 1016.42 1016.18 1016.01 1015.59 1015.27 1015.23 1015.63 1015.87 1016.34 1016.93 1017.73 1018.45
1013.59 1014.39 1015.19 1016.01 1016.66 1017.41 1017.66 1017.69 1017.55 1017.76 1018.28 1017.35 1017.07 1016.65 1016.44 1016.56 1015.94 1015.35 1015.28 1014.84 1014.68 1014.52 1014.80 1014.76 1014.53 1014.83 1015.04 1015.57 1015.70 1015.83 1015.58 1016.24 1016.52 1017.10 1016.92 1016.42 1016.19 1015.64 1015.60 1015.57 1015.89 1016.10 1016.78 1017.89 1018.63
1013.57 1014.45 1015.39 1016.11 1017.26 1017.61 1017.71 1017.56 1017.73 1017.92 1018.60 1017.78 1017.11 1016.09 1016.02 1016.17 1015.73 1015.00 1015.13 1015.25 1015.32 1014.48 1014.81 1015.09 1014.59 1014.56 1014.90 1015.42 1015.50 1015.98 1016.16 1016.47 1017.13 1017.52 1017.29 1017.25 1016.43 1016.18 1015.95 1016.18 1016.38 1016.92 1017.14 1018.22 1019.24
1013.97 1014.84 1015.59 1016.20 1017.09 1017.81 1018.02 1017.68 1017.81 1018.35 1019.04 1017.91 1016.91 1016.04 1015.76 1015.77 1015.15 1014.53 1014.46 1015.16 1014.63 1014.29 1014.24 1014.34 1014.43 1014.53 1014.95 1015.21 1015.59 1016.24 1016.39 1017.04 1017.69 1018.01 1018.22 1018.15 1018.23 1016.48 1016.63 1017.00 1016.92 1017.66 1018.23 1018.71 1019.52
1014.63 1015.46 1016.24 1016.90 1017.50 1018.04 1017.77 1017.86 1018.66 1020.25 1019.55 1018.09 1017.01 1016.43 1016.40 1015.96 1015.17 1014.54 1014.66 1014.88 1014.59 1014.68 1014.59 1014.89 1014.37 1014.66 1015.01 1015.34 1015.82 1016.45 1017.06 1017.84 1018.54 1018.94 1019.03 1018.38 1018.29 1017.46 1016.95 1016.88 1017.05 1018.75 1018.67 1019.17 1019.63
1015.53 1016.22 1016.67 1017.13 1018.02 1017.98 1017.94 1018.93 1020.64 1021.30 1020.06 1018.82 1017.70 1017.00 1016.53 1016.16 1015.79 1015.00 1014.71 1014.41 1013.98 1014.73 1014.85 1015.40 1014.69 1015.12 1015.19 1015.97 1016.67 1016.64 1017.23 1018.86 1019.50 1019.60 1019.32 1018.98 1019.05 1018.03 1017.41 1017.25 1017.66 1019.40 1018.52 1020.21 1019.81
1016.21 1016.62 1017.68 1017.98 1018.01 1018.07 1018.74 1020.29 1021.99 1021.38 1020.39 1019.07 1018.38 1017.54 1017.01 1016.27 1016.00 1015.56 1014.90 1014.43 1014.45 1014.48 1015.22 1015.21 1015.56 1015.09 1015.11 1015.09 1015.63 1016.54 1016.59 1017.40 1018.44 1019.38 1019.74 1019.72 1018.69 1017.62 1017.23 1017.50 1018.58 1018.61 1019.98 1019.92 1020.11
1016.38 1017.55 1018.38 1018.71 1018.35 1018.57 1019.78 1021.43 1021.49 1021.02 1020.02 1019.20 1018.31 1017.55 1016.94 1015.85 1015.72 1015.92 1015.32 1014.04 1014.24 1014.47 1014.79 1015.07 1015.49 1015.37 1015.14 1015.17 1015.69 1016.69 1017.07 1017.33 1018.22 1019.57 1019.50 1019.23 1018.24 1017.76 1017.72 1018.29 1018.60 1019.53 1020.66 1020.09 1020.37
1017.66 1018.55 1019.18 1018.88 1018.72 1019.46 1020.85 1021.75 1021.21 1020.32 1019.71 1018.99 1018.03 1016.87 1016.37 1015.56 1015.57 1015.65 1014.35 1012.93 1013.80 1014.19 1014.13 1014.76 1015.49 1015.52 1015.57 1015.56 1016.37 1016.26 1016.99 1018.11 1018.48 1019.68 1019.75 1019.27 1018.40 1017.82 1018.01 1018.35 1018.91 1019.27 1019.60 1020.74 1020.94
1018.61 1019.45 1019.29 1018.97 1019.14 1020.76 1022.05 1022.07 1020.80 1019.68 1019.36 1018.66 1017.61 1016.93 1016.01 1014.84 1014.73 1014.55 1013.32 1012.68 1013.20 1014.39 1014.21 1015.35 1014.89 1016.25 1015.52 1015.56 1015.91 1016.79 1017.56 1017.44 1017.88 1018.84 1018.97 1019.31 1018.49 1017.90 1017.80 1018.09 1018.24 1019.00 1019.79 1020.20 1020.79
1019.41 1020.24 1019.62 1019.49 1020.63 1022.05 1022.38 1021.57 1020.70 1019.71 1018.84 1018.04 1017.18 1016.28 1015.70 1014.60 1014.34 1014.24 1013.67 1012.64 1012.64 1013.80 1014.36 1014.37 1014.82 1016.15 1016.43 1016.62 1016.37 1016.20 1016.66 1016.95 1017.71 1018.99 1019.09 1018.63 1018.65 1018.04 1018.05 1018.30 1018.75 1019.31 1019.82 1020.56 1021.03
1020.17 1020.70 1020.15 1020.16 1021.45 1022.48 1022.02 1021.28 1020.39 1019.38 1018.41 1017.48 1016.51 1015.91 1015.53 1014.55 1014.20 1014.19 1013.68 1013.01 1013.03 1013.65 1014.12 1014.40 1015.44 1016.57 1017.15 1017.37 1017.03 1016.65 1016.79 1017.19 1017.54 1018.36 1019.23 1019.14 1018.97 1018.25 1018.18 1018.57 1019.00 1019.52 1020.19 1020.80 1021.47
1020.77 1021.58 1021.43 1021.53 1021.84 1021.94 1021.83 1020.81 1019.93 1019.00 1018.37 1017.57 1016.47 1015.80 1015.45 1014.67 1014.15 1013.89 1013.34 1013.35 1013.40 1013.52 1013.68 1014.05 1016.06 1016.72 1017.04 1016.74 1016.69 1017.11 1016.90 1017.22 1017.56 1018.83 1019.46 1019.02 1018.91 1018.83 1018.67 1018.75 1019.32 1019.90 1020.22 1020.82 1021.44
1020.88 1022.19 1022.28 1022.54 1022.38 1021.90 1021.14 1020.28 1019.55 1018.98 1018.32 1017.34 1016.53 1016.00 1015.10 1014.53 1013.92 1013.82 1013.65 1013.66 1013.99 1014.22 1014.69 1014.96 1017.35 1018.27 1018.43 1017.67 1017.16 1017.12 1017.25 1017.49 1017.81 1018.30 1018.89 1018.70 1018.58 1018.90 1019.04 1019.18 1019.42 1019.73 1020.37 1021.11 1021.67
1020.79 1021.93 1022.54 1022.48 1022.13 1021.61 1020.87 1019.88 1019.50 1018.95 1018.41 1017.45 1016.93 1016.31 1015.69 1015.80 1015.51 1014.63 1013.90 1014.06 1014.26 1014.95 1015.47 1016.49 1018.54 1019.06 1019.83 1019.32 1018.52 1018.56 1018.07 1017.90 1018.01 1018.35 1018.56 1018.61 1018.67 1018.70 1019.09 1019.42 1020.06 1020.34 1020.79 1021.33 1021.83
1020.59 1021.02 1021.48 1022.71 1022.26 1021.90 1020.95 1020.00 1019.70 1019.31 1018.86 1018.26 1017.81 1017.21 1016.67 1016.86 1016.66 1015.85 1015.08 1014.95 1015.09 1015.64 1016.64 1017.43 1018.95 1020.55 1022.22 1021.33 1020.24 1020.28 1018.88 1018.27 1018.42 1018.28 1018.37 1018.83 1018.55 1018.90 1019.40 1019.66 1020.29 1020.67 1021.20 1021.64 1022.05
Wind_Speed
9 8 6 7 6 6 7 8 9 8 9 12 12 11 9 11 8 6 8 5 6 8 4 3 1 3 4 4 2 1 3 2 3 3 3 1 4 3 3 6 1 2 6 5 17
10 9 8 7 8 5 5 7 8 8 10 11 13 13 10 11 4 9 3 6 7 8 3 2 4 4 2 2 4 3 3 7 5 3 4 2 3 8 5 4 2 3 5 14 17
11 10 9 7 7 5 4 6 7 7 8 10 11 12 8 6 3 5 15 11 10 6 4 2 3 5 5 4 4 2 4 3 6 2 1 4 2 3 9 3 7 8 15 15 17
14 12 10 8 7 6 5 4 5 6 8 9 11 11 7 1 8 0 7 15 11 7 7 5 4 8 6 6 5 3 5 3 6 4 5 3 5 4 5 4 6 12 20 15 16
13 12 11 7 7 7 6 4 5 5 7 10 11 10 3 4 7 4 8 11 7 8 9 7 5 5 5 6 4 4 2 6 6 9 5 5 6 5 5 4 10 12 14 14 12
14 13 11 9 8 7 7 5 5 5 6 9 12 10 2 6 2 4 9 6 5 4 5 7 8 6 2 5 7 3 2 7 6 5 4 3 3 4 1 7 10 16 11 11 12
14 12 11 10 8 6 6 4 5 5 7 9 11 3 3 9 2 3 5 3 5 3 4 2 4 5 6 2 0 3 4 6 3 2 4 1 2 6 5 8 13 10 7 7 9
15 13 11 11 8 6 4 5 6 6 7 9 11 2 5 2 2 4 4 3 2 1 3 6 5 4 3 2 1 4 3 1 2 5 2 5 9 2 7 13 9 9 7 7 8
14 14 12 12 9 7 4 4 7 7 8 8 2 1 6 5 1 4 8 5 5 2 3 5 4 3 3 8 3 4 5 5 2 2 2 4 5 4 6 8 10 9 8 8 6
13 16 14 13 10 8 5 3 6 6 4 2 1 2 3 3 2 2 3 6 4 10 4 3 3 4 4 8 16 6 3 5 8 1 2 5 5 2 7 8 10 8 8 7 7
14 16 16 14 12 9 4 3 4 4 2 5 3 3 1 7 4 3 4 6 5 5 5 4 5 9 12 11 1 7 7 7 2 1 1 4 3 3 2 3 7 7 7 7 6
14 16 17 15 12 10 5 3 3 2 4 7 4 6 2 2 4 5 3 8 9 10 7 5 9 6 9 7 3 10 12 9 3 3 3 1 3 0 2 5 6 9 8 8 6
14 15 17 15 13 5 5 3 3 2 1 6 5 6 4 5 5 5 7 5 4 12 14 5 6 9 9 9 10 5 16 10 5 3 2 3 2 1 2 1 3 4 7 6 9
15 18 18 18 6 2 1 2 4 3 6 7 3 7 5 6 7 6 6 6 7 11 17 4 3 11 11 9 9 8 4 8 7 6 11 2 8 4 2 4 5 6 9 9 9
18 19 20 8 6 4 1 5 4 6 5 4 3 3 4 9 2 3 7 8 8 9 3 6 10 14 13 8 7 3 13 9 4 5 3 2 4 4 3 6 5 5 7 8 8
20 19 13 4 3 1 5 6 6 9 8 5 1 4 6 4 3 0 5 3 6 4 2 2 7 7 3 10 4 10 10 10 5 3 2 4 3 4 8 6 3 2 6 5 8
19 14 6 2 3 2 3 5 7 5 5 4 1 3 6 6 6 2 9 11 4 7 5 4 13 5 5 12 12 12 10 4 3 3 2 6 3 4 6 2 3 8 9 4 7
19 16 9 3 2 3 4 7 3 5 6 1 3 3 5 9 7 2 10 14 8 1 4 5 5 10 5 9 10 17 5 5 5 4 3 4 4 5 6 3 3 6 7 4 10
11 3 4 5 3 3 6 4 9 7 3 3 3 2 4 6 5 10 12 20 13 9 5 5 2 1 1 5 12 5 3 1 6 2 3 4 4 2 5 5 8 10 9 10 5
4 4 3 5 3 6 3 6 4 5 2 1 5 6 5 6 9 5 16 18 9 3 5 4 6 2 1 8 4 3 5 4 2 4 1 2 3 3 4 10 11 13 10 8 6
5 5 4 4 4 6 4 8 5 3 3 5 3 3 8 6 13 9 11 2 9 13 2 7 3 2 2 1 7 6 2 1 5 2 5 4 4 2 4 7 13 10 10 11 9
3 3 3 2 4 1 2 5 3 5 4 9 4 7 5 4 6 6 7 4 11 10 6 1 5 4 3 1 0 0 7 4 4 3 2 1 1 2 4 4 6 6 7 6 8
3 1 2 3 2 3 6 4 4 3 4 4 4 2 3 3 4 6 8 1 11 10 9 4 2 5 4 4 3 3 3 4 5 3 1 4 3 3 4 5 5 9 8 7 6
4 2 5 4 2 5 2 3 3 3 5 5 5 5 4 4 1 7 4 2 3 6 9 5 5 1 7 4 6 5 6 4 6 4 4 3 3 0 4 7 7 6 8 9 8
3 2 3 2 3 2 2 2 2 2 4 3 3 7 4 1 2 3 5 7 5 4 5 5 4 3 4 5 3 5 10 8 5 5 5 6 7 6 5 7 6 7 7 8 8
5 4 2 1 2 2 2 2 4 4 3 4 4 9 11 5 4 1 1 3 3 4 4 2 3 3 7 9 6 4 5 8 5 4 6 5 3 5 5 6 4 5 6 7 7
1 2 5 3 3 3 2 3 2 2 0 2 6 5 11 8 6 10 9 10 7 5 3 4 7 4 2 5 5 5 7 6 4 3 8 6 4 6 3 3 2 4 5 7 6
Wind_Direction
258 260 277 283 259 268 290 298 309 328 340 337 341 325 323 330 294 177 227 232 194 177 135 123 26 12 15 333 311 39 64 232 245 185 311 33 130 145 91 114 9 67 148 179 134
254 258 253 272 274 257 271 294 302 318 329 335 337 335 326 330 255 229 230 190 182 167 89 137 151 128 197 287 306 118 149 215 238 346 318 241 210 161 117 129 25 52 53 125 137
245 243 251 249 276 270 263 294 309 314 325 330 331 334 321 323 313 239 193 186 178 162 115 132 110 123 196 170 222 188 203 240 294 272 287 276 171 214 123 227 200 177 146 145 147
245 235 238 243 252 267 264 297 321 317 325 331 329 331 308 276 217 353 247 181 172 148 119 157 131 149 194 184 178 236 248 239 284 299 347 268 160 203 167 226 171 158 151 149 155
244 233 231 222 239 260 266 282 314 326 326 332 328 325 298 233 259 328 142 150 152 154 174 165 161 135 194 176 162 191 281 304 285 304 271 279 252 195 195 78 112 131 149 155 158
239 229 217 207 218 244 251 269 311 325 324 328 324 318 222 241 292 286 130 148 147 156 180 180 183 140 217 209 185 126 234 271 275 274 277 241 246 174 140 133 124 147 158 162 163
235 225 209 205 211 227 235 273 305 330 317 314 318 287 261 236 1 265 159 175 151 154 156 254 114 115 172 148 266 133 334 317 224 219 255 196 270 229 137 140 146 157 155 160 172
223 218 208 196 202 211 224 283 308 314 304 302 315 244 252 324 358 199 198 186 99 47 132 140 130 124 203 126 77 154 142 225 315 180 236 141 243 214 148 146 164 157 165 171 191
216 211 197 191 185 196 216 278 309 312 299 311 323 167 262 335 279 263 191 187 145 129 125 122 137 148 163 135 120 227 182 165 299 36 218 155 242 161 160 163 170 170 172 188 190
209 198 186 184 178 177 191 262 308 338 328 54 29 61 287 263 255 264 194 180 166 133 111 138 150 174 160 177 209 176 177 188 196 277 288 134 279 311 177 170 184 177 174 187 195
200 193 182 176 170 173 115 53 26 342 346 188 215 247 14 309 287 247 185 191 133 181 174 198 179 195 188 194 221 190 197 213 144 50 190 199 197 260 198 166 172 192 180 188 205
188 183 174 166 163 133 98 148 202 172 307 239 225 279 237 146 343 278 229 215 175 191 125 172 217 190 162 157 134 163 189 200 123 333 152 235 191 210 188 222 198 190 179 168 122
168 176 161 155 129 85 150 201 114 112 107 292 193 210 200 184 228 254 176 237 265 198 182 180 169 152 150 166 160 187 189 176 190 162 63 117 298 148 220 145 123 124 128 123 140
156 155 141 131 82 171 217 137 93 76 63 272 227 261 158 143 268 209 221 238 191 208 166 213 167 157 153 177 167 190 157 131 135 178 210 141 239 253 158 232 152 118 110 116 117
132 133 137 131 140 140 66 109 90 56 38 261 206 294 215 187 106 250 157 196 227 219 148 163 169 163 162 165 151 155 133 104 78 88 131 153 195 185 130 230 181 157 117 122 125
127 130 110 72 58 37 121 81 48 46 258 328 355 205 170 245 237 340 180 160 205 246 154 237 165 152 151 140 122 118 104 64 50 74 226 176 181 231 186 169 106 349 106 128 128
111 81 64 51 125 124 73 52 48 127 316 300 340 314 237 179 218 291 216 197 194 151 171 314 162 118 137 132 135 121 121 130 152 183 220 151 131 249 272 235 66 183 109 175 132
95 88 66 58 29 104 55 53 115 236 226 212 256 278 255 174 219 175 234 207 194 124 127 173 155 173 171 175 167 160 171 144 154 170 141 167 207 245 206 278 175 106 136 143 134
82 30 50 351 17 59 72 71 207 205 242 258 263 180 243 213 184 179 258 207 186 186 144 153 152 98 239 129 153 156 142 53 106 42 96 186 256 165 128 155 162 166 188 156 112
62 48 14 327 45 57 85 247 237 220 282 229 237 160 242 190 177 173 203 185 172 171 181 157 109 52 226 102 29 154 136 113 5 125 189 281 279 209 159 156 161 155 154 158 144
55 57 268 357 65 53 178 231 265 236 168 228 265 256 243 180 193 161 208 138 145 178 353 177 132 122 224 229 142 137 191 121 113 147 156 140 246 320 176 182 164 160 162 154 142
86 55 302 63 60 14 161 208 288 269 235 248 254 263 237 199 154 164 227 181 156 133 173 68 118 112 82 2 180 275 159 149 117 229 34 116 229 347 287 218 157 151 146 138 144
92 209 323 93 149 282 296 271 249 276 244 258 256 222 217 258 134 175 205 75 176 138 161 198 82 103 55 28 342 150 139 124 108 69 175 119 248 355 60 126 165 155 156 154 150
92 58 327 48 171 153 228 254 265 252 273 264 277 307 257 219 239 166 138 106 91 120 130 100 79 9 176 155 135 156 138 133 105 103 178 195 152 315 48 109 120 132 152 159 172
54 244 197 226 301 235 247 231 269 6 243 274 268 326 295 11 59 86 102 114 63 58 80 94 117 88 22 22 89 136 159 154 143 152 156 193 163 182 149 125 136 139 145 169 188
130 141 86 200 270 292 308 325 14 348 352 335 25 342 26 54 348 115 100 88 133 37 85 57 135 106 26 5 54 78 127 126 113 126 78 113 112 159 153 104 116 161 182 204 200
170 50 103 323 332 85 264 293 342 306 221 58 302 333 27 4 17 28 59 74 81 106 102 89 126 88 299 347 55 4 212 154 142 166 139 158 204 143 168 147 174 162 182 212 203